Home   Weather   India   Washim   Past weeks
Flag for India

Past Weather in Washim, Maharashtra, India — Yesterday and Last 2 Weeks

Currently: 82 °F. Partly cloudy. (Weather station: Nagpur Sonegaon, India). See more current weather

Past Weather in Washim — Graph

°F

Washim Temperature Yesterday

Maximum temperature yesterday: 97 °F (at 1:30 pm)
Minimum temperature yesterday: 77 °F (at 6:00 pm)
Average temperature yesterday: 83 °F

High & Low Weather Summary for the Past Weeks

 TemperatureHumidityPressure
High108 °F (Jun 8, 4:00 pm)100% (Jun 17, 5:30 pm)29.77 "Hg (Jun 17, 5:30 pm)
Low77 °F (Jun 17, 5:30 pm)32% (Jun 8, 4:00 pm)29.50 "Hg (Jun 20, 4:30 pm)
Average90 °F67%29.66 "Hg
* Reported Jun 7 7:30 pm — Jun 22 8:00 pm, Washim. Weather by CustomWeather, © 2024

Note: Actual official high and low records may vary slightly from our data, if they occured in-between our weather recording intervals... More about our weather records

Washim Weather History for the Previous 24 Hours

Scroll right to see more
 ConditionsComfort  
Time TempWeatherWind HumidityBarometerVisibility
8:00 pm
Sat, Jun 22
82 °FPartly cloudy.2 mph89%29.59 "Hg2 mi
7:30 pm84 °FPartly cloudy.3 mph84%29.56 "Hg2 mi
7:00 pm84 °FBroken clouds.2 mph84%29.56 "Hg2 mi
6:30 pm84 °FBroken clouds.3 mph84%29.56 "Hg2 mi
6:00 pm84 °FBroken clouds.3 mph84%29.53 "Hg2 mi
5:30 pm86 °FBroken clouds.3 mph79%29.53 "Hg2 mi
5:00 pm86 °FBroken clouds.2 mph79%29.53 "Hg2 mi
4:30 pm86 °FBroken clouds.2 mph75%29.53 "Hg2 mi
4:00 pm84 °FBroken clouds.5 mph79%29.53 "Hg2 mi
3:30 pm84 °FBroken clouds.8 mph79%29.53 "Hg2 mi
3:00 pm84 °FBroken clouds.5 mph79%29.56 "Hg2 mi
2:30 pm84 °FBroken clouds.6 mph79%29.56 "Hg2 mi
2:00 pm90 °FScattered clouds.2 mph75%29.56 "Hg2 mi
1:30 pm90 °FScattered clouds.2 mph75%29.59 "Hg2 mi
1:00 pm90 °FScattered clouds.3 mph75%29.59 "Hg2 mi
12:30 pm88 °FScattered clouds.6 mph79%29.59 "Hg2 mi
12:00 pm86 °FScattered clouds.6 mph84%29.62 "Hg2 mi
11:30 am86 °FBroken clouds.6 mph84%29.62 "Hg2 mi
11:00 am84 °FBroken clouds.6 mph89%29.62 "Hg2 mi
10:30 am82 °FBroken clouds.6 mph94%29.62 "Hg2 mi
10:00 am82 °FBroken clouds.6 mph89%29.65 "Hg2 mi
9:30 am81 °FBroken clouds.3 mph94%29.65 "Hg2 mi
9:00 am81 °FBroken clouds.2 mph94%29.65 "Hg2 mi
8:30 am81 °FBroken clouds.3 mph94%29.62 "Hg2 mi
8:00 am79 °FFog.2 mph100%29.62 "Hg2 mi
7:30 am79 °FFog.2 mph100%29.62 "Hg2 mi
7:00 am79 °FFog.2 mph100%29.62 "Hg2 mi
6:30 am79 °FFog.2 mph100%29.62 "Hg2 mi
6:00 am79 °FFog.2 mph94%29.59 "Hg2 mi
5:30 am79 °FFog.2 mph94%29.59 "Hg2 mi
5:00 am79 °FFog.2 mph94%29.59 "Hg2 mi
4:30 am79 °FFog.2 mph94%29.59 "Hg2 mi
4:00 am79 °FFog.3 mph94%29.59 "Hg2 mi
3:30 am79 °FFog.3 mph94%29.59 "Hg2 mi
2:30 am79 °FFog.5 mph94%29.59 "Hg2 mi
1:30 am79 °FFog.6 mph94%29.62 "Hg2 mi
1:00 am79 °FFog.3 mph100%29.62 "Hg2 mi
12:30 am79 °FFog.2 mph100%29.62 "Hg2 mi
12:00 am79 °FFog.2 mph100%29.65 "Hg2 mi
11:30 pm
Fri, Jun 21
79 °FLight rain. Mostly cloudy.3 mph100%29.65 "Hg2 mi
11:00 pm79 °FLight rain. Mostly cloudy.2 mph100%29.65 "Hg2 mi
10:30 pm79 °FLight rain. Mostly cloudy.3 mph100%29.65 "Hg2 mi
10:00 pm79 °FThunderstorms. Mostly cloudy.2 mph100%29.65 "Hg2 mi
9:30 pm79 °FThunderstorms. Mostly cloudy.No wind100%29.65 "Hg2 mi
9:00 pm79 °FThunderstorms. Mostly cloudy.2 mph94%29.65 "Hg2 mi
Weather by CustomWeather, © 2024

See weather overview